Vorticity
3 6 7 7 6 5 5 4 13 16 7 1 3 12 12 3 7 7 9 2 11 7
9 7 6 5 4 3 5 6 18 5 1 6 7 9 4 8 8 7 6 9 8 8
12 7 9 13 8 7 5 8 25 0 5 7 2 3 10 7 9 10 9 8 14 13
11 14 15 14 9 8 6 16 3 3 7 5 5 5 11 20 0 -5 1 4 2 3
10 9 16 13 9 9 10 17 4 4 5 6 5 8 12 -2 14 6 10 9 -3 0
16 8 16 16 12 7 14 7 6 4 3 4 3 -1 8 11 7 3 3 3 1 5
17 6 8 16 23 10 7 4 7 2 1 3 1 3 5 3 1 4 3 5 -2 6
6 8 8 9 13 10 8 6 5 3 1 2 1 5 3 6 3 5 8 1 7 11
2 1 15 9 10 11 18 8 8 7 3 9 -3 6 3 5 7 0 8 1 6 12
-4 5 16 8 12 9 14 8 7 6 8 8 7 4 5 -7 4 0 2 -1 4 4
18 8 9 10 10 12 10 14 9 3 -8 9 3 -1 -6 23 6 -0 5 2 1 7
7 8 10 3 9 7 11 23 9 1 8 6 -1 -4 6 3 5 4 4 -1 4 8
12 1 7 10 4 2 5 9 16 6 5 1 -2 -1 -9 17 10 9 -1 2 2 3
5 6 8 4 5 7 6 2 12 11 3 -3 1 3 14 -8 5 4 3 2 3 -3
Height
5902 5903 5905 5907 5908 5908 5908 5908 5909 5908 5908 5907 5906 5904 5903 5902 5900 5899 5898 5896 5893 5891
5897 5899 5901 5903 5905 5905 5905 5905 5906 5906 5905 5904 5904 5903 5902 5900 5898 5897 5895 5893 5891 5889
5890 5892 5895 5897 5899 5900 5901 5902 5903 5903 5901 5902 5902 5902 5900 5898 5896 5894 5892 5890 5888 5886
5888 5888 5889 5891 5892 5895 5897 5899 5899 5898 5898 5899 5898 5899 5898 5897 5894 5891 5889 5887 5884 5882
5884 5885 5885 5886 5886 5889 5893 5895 5895 5894 5894 5895 5896 5895 5895 5894 5891 5888 5886 5884 5882 5879
5880 5881 5880 5881 5881 5884 5888 5890 5891 5891 5891 5892 5892 5891 5889 5887 5886 5885 5882 5880 5877 5873
5876 5877 5878 5877 5878 5879 5882 5885 5887 5886 5886 5887 5887 5886 5885 5884 5882 5881 5878 5875 5872 5868
5873 5873 5873 5874 5876 5876 5878 5880 5881 5881 5882 5883 5883 5882 5881 5880 5878 5876 5874 5871 5868 5865
5868 5868 5870 5870 5871 5872 5874 5875 5877 5878 5878 5879 5879 5878 5877 5876 5874 5872 5870 5868 5864 5859
5864 5863 5864 5865 5865 5867 5869 5870 5872 5873 5874 5875 5874 5874 5872 5869 5869 5867 5863 5862 5857 5852
5857 5857 5858 5858 5859 5860 5862 5864 5866 5866 5867 5867 5868 5867 5865 5863 5862 5859 5857 5855 5849 5846
5850 5851 5851 5852 5854 5854 5855 5856 5859 5859 5859 5859 5858 5857 5857 5855 5854 5853 5849 5845 5841 5836
5843 5843 5845 5847 5847 5848 5847 5848 5848 5848 5850 5849 5851 5848 5849 5848 5845 5844 5842 5836 5832 5828
5830 5834 5836 5837 5838 5840 5840 5838 5837 5839 5840 5840 5840 5840 5842 5841 5837 5833 5832 5828 5823 5818